Probability
0 0 0 0 0 0 0 0 0 0 0 0 0 0 0 0 0 0 0 0 0 0 0 0 0 0 0 0 0 0 0 0 0 0 0 0 0 0 0 0 0 0 0 0
0 0 0 0 0 0 0 0 0 0 0 0 0 0 0 0 0 0 0 0 0 0 0 0 0 0 0 0 0 0 0 0 0 0 0 0 0 0 0 0 0 0 0 0
0 0 0 0 0 0 0 0 0 0 0 0 0 0 0 0 0 0 0 0 0 0 0 0 0 0 0 0 0 0 0 0 0 0 0 0 0 0 0 0 0 0 0 0
0 0 0 0 0 0 0 0 0 0 0 0 0 0 0 0 0 0 0 0 0 0 0 0 0 0 0 0 0 0 0 0 0 0 0 0 0 0 0 0 0 0 0 0
0 0 0 0 0 0 0 0 0 0 0 0 0 0 0 0 0 0 0 0 0 0 0 0 0 0 0 0 0 0 0 0 0 0 0 0 0 0 0 0 0 0 0 0
0 0 0 0 0 0 0 0 0 0 0 0 0 0 0 0 0 0 0 0 0 0 0 0 0 0 0 0 0 0 0 0 0 0 0 0 0 0 0 0 0 0 0 0
0 0 0 0 0 0 0 0 0 0 0 0 0 0 0 0 0 0 0 0 0 0 0 0 0 0 0 0 0 0 0 0 0 0 0 0 0 0 0 0 0 0 0 0
0 0 0 0 0 0 0 0 0 0 0 0 0 0 0 0 0 0 0 0 0 0 0 0 0 0 0 0 0 0 0 0 0 0 0 0 0 0 0 0 0 0 0 0
0 0 0 0 0 0 0 0 0 0 0 0 0 0 0 0 0 0 0 0 0 0 0 0 0 0 0 0 0 0 0 0 0 0 0 0 0 0 0 0 0 0 0 0
0 0 0 0 0 0 0 0 0 0 0 0 0 0 0 0 0 0 0 0 0 0 0 0 0 0 0 0 0 0 0 0 0 0 0 0 0 0 0 0 0 0 0 0
0 0 0 0 0 0 0 0 0 0 0 0 0 0 0 0 0 0 0 0 0 0 0 0 0 0 0 0 0 0 0 0 0 0 0 0 0 0 0 0 0 0 0 0
0 0 0 0 0 0 0 0 0 0 0 0 0 0 0 0 0 0 0 0 0 0 0 0 0 0 0 0 0 0 0 0 0 0 0 0 0 0 0 0 0 0 0 0
0 0 0 0 0 0 0 0 0 0 0 0 0 0 0 0 0 0 0 0 0 0 0 0 0 0 0 0 0 0 0 0 0 0 0 0 0 0 0 0 0 0 0 0
0 0 0 0 0 0 0 0 0 0 0 0 0 0 0 0 0 0 0 0 0 0 0 0 0 0 0 0 0 0 0 0 0 0 0 0 0 0 0 0 0 0 0 0
0 0 0 0 0 0 0 0 0 0 0 0 0 0 0 0 0 0 0 0 0 0 0 0 0 0 0 0 0 0 0 0 0 0 0 0 0 0 0 0 0 0 0 0
0 0 0 0 0 0 0 0 0 0 0 0 0 0 0 0 0 0 0 0 0 0 0 0 0 0 0 0 0 0 0 0 0 0 0 0 0 0 0 0 0 0 0 0
0 0 0 0 0 0 0 0 0 0 0 0 0 0 0 0 0 0 0 0 0 0 0 0 0 0 0 0 0 0 0 0 0 0 0 0 0 0 0 0 0 0 0 0
0 0 0 0 0 0 0 0 0 0 0 0 0 0 0 0 0 0 0 0 0 0 0 0 0 0 0 0 0 0 0 0 0 0 0 0 0 0 0 0 0 0 0 0
0 0 0 0 0 0 0 0 0 0 0 0 0 0 0 0 0 0 0 0 0 0 0 0 0 0 0 0 0 0 0 0 0 0 0 0 0 0 0 0 0 0 0 0
0 0 0 0 0 0 0 0 0 0 0 0 0 0 0 0 0 0 0 0 0 0 0 0 0 0 0 0 0 0 0 0 0 0 0 0 0 0 0 0 0 0 0 0
0 0 0 0 0 0 0 0 0 0 0 0 0 0 0 0 0 0 0 0 0 0 0 0 0 0 0 0 0 0 0 0 0 0 0 0 0 0 0 0 0 0 0 0
0 0 0 0 0 0 0 0 0 0 0 0 0 0 0 0 0 0 0 0 0 0 0 0 0 0 0 0 0 0 0 0 0 0 0 0 0 0 0 0 0 0 0 0
0 0 0 0 0 0 0 0 0 0 0 0 0 0 0 0 0 0 0 0 0 0 0 0 0 0 0 0 0 0 0 0 0 0 0 0 0 0 0 0 0 0 0 0
0 0 0 0 0 0 0 0 0 0 0 0 0 0 0 0 0 0 0 0 0 0 0 0 0 0 0 0 0 0 0 0 0 0 0 0 0 0 0 0 0 0 0 0
0 0 0 0 0 0 0 0 0 0 0 0 0 0 0 0 0 0 0 0 0 0 0 0 0 0 0 0 0 0 0 0 0 0 0 0 0 0 0 0 0 0 0 0
0 0 0 0 0 0 0 0 0 0 0 0 0 0 0 0 0 0 0 0 0 0 0 0 0 0 0 0 0 0 0 0 0 0 0 0 0 0 0 0 0 0 0 0
0 0 0 0 0 0 0 0 0 0 0 0 0 0 0 0 0 0 0 0 0 0 0 0 0 0 0 0 0 0 0 0 0 0 0 0 0 0 0 0 0 0 0 0
Wind_Speed
6 5 5 8 8 9 12 12 13 13 13 13 10 9 8 7 7 8 9 10 11 11 10 10 9 9 8 7 7 6 6 5 4 3 2 3 2 3 3 3 3 3 3 3
7 6 7 10 12 12 13 13 14 15 15 12 10 8 8 8 8 9 10 11 11 11 11 11 11 10 9 8 8 7 6 5 3 3 3 3 3 3 3 3 3 3 3 3
9 5 7 11 9 11 10 10 11 12 11 9 8 8 8 8 8 10 10 10 10 11 12 11 11 10 10 9 8 8 7 5 4 4 3 3 2 2 2 2 2 3 3 3
8 8 11 4 1 4 8 9 10 12 12 10 9 8 7 7 8 9 9 9 9 10 10 11 10 10 9 9 9 8 7 6 5 4 3 3 2 2 3 2 2 2 3 3
7 10 10 7 4 5 6 7 5 8 9 7 6 6 6 5 6 7 7 7 8 9 10 10 10 11 10 10 9 8 7 7 6 5 4 3 3 3 2 2 2 2 2 2
7 9 8 4 1 1 5 5 4 5 6 5 3 5 2 0 3 5 5 5 7 8 10 10 10 10 11 10 10 9 8 7 6 5 4 4 4 3 2 2 2 2 2 2
10 10 8 3 1 4 6 3 7 7 6 4 5 6 6 3 3 4 5 6 7 9 9 9 10 11 11 11 10 8 7 6 6 5 5 4 3 3 3 2 2 2 2 2
7 9 6 3 4 3 6 8 8 8 8 7 8 8 6 4 3 3 5 7 9 9 9 9 10 11 11 10 8 8 7 7 6 5 4 4 4 3 3 3 3 2 2 1
6 4 3 1 2 5 7 8 9 10 10 9 9 9 7 6 4 4 5 7 8 9 9 10 11 11 11 10 9 8 8 7 6 6 5 4 4 4 3 3 3 2 2 1
8 8 6 6 7 6 7 9 10 11 11 10 10 10 8 6 5 5 6 7 8 10 10 11 11 11 10 9 9 10 9 8 7 6 5 4 2 2 2 2 2 2 1 1
12 11 10 7 6 9 10 11 12 12 11 11 11 11 9 7 7 6 6 7 8 10 10 11 11 11 10 10 10 10 10 8 7 6 5 4 3 1 0 2 3 2 1 1
13 10 11 12 11 13 13 13 13 13 13 11 10 11 10 9 7 6 7 7 8 10 10 11 11 11 11 10 11 11 9 8 6 6 5 4 5 5 6 5 7 7 6 4
12 11 12 14 13 12 12 13 13 13 13 13 11 10 10 9 7 7 7 8 9 10 11 11 11 11 11 11 11 11 9 8 6 6 6 6 5 5 6 5 5 6 6 6
9 10 12 10 10 11 12 13 12 12 12 11 10 9 8 8 7 7 8 8 8 9 10 10 11 11 11 11 11 11 9 7 7 6 6 6 5 5 4 5 5 5 6 6
8 8 9 10 10 10 10 10 11 11 11 10 9 8 8 7 7 7 7 6 7 9 10 10 11 10 10 11 11 11 9 7 7 6 6 5 5 5 4 4 4 4 4 5
8 7 6 7 8 9 10 10 10 11 11 11 10 9 8 8 7 6 6 7 9 10 10 11 11 10 10 10 10 8 7 7 7 7 6 6 6 5 5 5 4 4 3 3
6 6 7 8 9 9 10 10 10 11 11 11 10 10 8 7 6 6 6 7 8 8 9 9 9 9 10 10 10 8 7 8 9 7 6 6 6 6 5 5 4 4 3 3
5 6 7 8 8 9 10 11 11 11 11 11 10 9 7 7 7 6 5 6 6 6 7 8 9 10 10 10 9 7 7 8 8 7 6 6 6 6 5 5 5 5 4 5
4 5 6 8 9 9 10 11 11 12 11 10 10 9 8 7 6 5 5 6 7 7 6 7 9 10 10 10 8 7 8 8 7 7 7 7 7 6 6 6 5 5 4 4
4 5 6 7 9 9 10 11 11 11 10 10 9 8 7 6 5 5 6 6 5 4 5 7 10 9 10 10 9 7 8 8 8 7 7 7 7 6 6 6 5 5 4 4
6 7 8 8 9 10 10 11 10 11 10 10 9 8 7 5 4 4 5 5 4 4 6 9 7 7 8 9 10 7 8 8 8 7 7 7 7 6 6 6 5 5 4 4
7 8 9 10 10 10 10 10 10 10 10 9 8 7 6 5 4 4 5 3 3 6 6 6 6 8 9 10 8 8 8 8 7 7 7 7 6 6 6 6 5 4 4 4
8 9 10 11 11 12 12 10 10 9 9 9 8 7 6 4 4 4 3 2 4 7 5 5 7 12 13 9 7 8 8 8 8 7 7 7 6 6 5 6 5 4 4 4
9 11 11 11 11 11 11 11 10 8 8 8 7 6 5 4 3 3 2 3 6 7 4 6 10 13 12 7 7 7 8 8 7 7 7 6 6 6 5 5 5 4 4 5
10 11 11 11 10 9 10 10 9 8 8 6 6 5 4 3 3 2 2 4 6 6 5 8 12 12 8 6 7 7 7 7 7 7 6 6 6 5 5 5 5 4 4 4
10 9 9 10 9 8 8 7 7 6 6 6 5 4 3 2 2 2 2 4 6 6 5 5 7 9 7 7 7 7 7 7 7 6 6 6 6 6 5 5 6 4 4 3
10 9 8 8 8 7 6 6 7 6 6 5 5 4 3 3 2 2 3 3 4 5 5 5 6 6 6 6 6 6 6 6 6 6 6 6 5 5 5 6 5 4 4 4
Wind_Direction
280 285 264 261 250 227 235 258 271 280 281 284 283 274 263 247 234 221 211 205 201 199 195 191 192 194 194 196 194 195 203 218 231 246 256 274 286 293 310 320 321 336 336 336
261 253 255 259 258 249 247 256 263 272 277 281 284 274 258 243 230 223 217 211 205 202 197 194 192 192 190 192 191 193 203 210 211 238 243 259 273 286 301 307 314 326 322 332
273 271 265 260 255 246 244 241 252 266 279 290 282 268 258 250 232 226 222 214 205 202 197 196 194 190 187 189 184 192 198 200 204 220 229 245 257 272 280 281 299 307 312 315
274 271 263 294 2 258 255 262 257 264 279 287 286 285 271 255 239 230 221 212 205 200 194 193 189 185 183 182 186 192 196 198 200 213 221 227 239 260 272 286 295 296 314 314
262 268 271 275 248 223 241 271 291 278 285 295 303 276 248 230 236 234 221 209 200 195 187 186 183 181 182 184 187 192 196 201 199 204 211 217 224 237 259 279 288 287 305 310
247 260 265 278 88 214 253 248 22 334 317 315 280 267 288 33 231 229 212 197 186 181 181 180 178 179 186 188 190 194 196 202 200 202 208 216 226 237 235 246 267 281 294 300
244 255 263 315 96 195 241 354 10 347 332 305 266 292 338 323 251 216 195 184 178 178 180 179 175 180 191 192 194 190 189 194 196 196 206 216 224 226 229 236 253 267 272 273
238 246 255 102 158 230 338 347 336 335 331 309 292 300 306 297 259 210 189 182 181 180 178 175 177 185 192 192 186 178 179 186 192 195 201 203 209 222 230 229 234 242 252 258
245 268 29 118 277 326 330 320 329 330 326 313 298 292 290 281 258 224 203 188 187 186 178 177 182 191 194 183 178 175 178 183 188 189 191 201 204 206 214 222 241 252 257 276
261 262 275 285 294 301 309 311 317 318 316 307 294 291 286 274 255 230 212 196 189 188 187 185 184 190 193 177 176 180 182 184 185 187 184 184 191 211 217 228 236 247 268 288
268 277 285 273 298 317 318 315 313 314 311 303 295 289 284 272 254 234 217 201 195 198 197 190 184 185 185 178 179 185 185 183 185 181 175 171 148 73 41 56 16 336 332 329
270 288 292 294 312 317 312 311 313 312 308 303 292 287 284 273 258 238 221 208 202 200 198 193 186 184 181 180 186 190 187 183 180 175 170 168 154 126 69 71 72 62 41 20
283 297 292 292 298 307 307 308 308 304 300 299 295 287 280 272 257 240 227 215 209 202 197 192 186 186 180 180 187 192 188 181 177 179 173 175 173 167 151 127 104 80 66 58
285 291 284 290 300 308 308 307 305 300 298 296 295 290 279 270 258 240 230 222 212 201 195 190 188 186 180 180 184 190 189 178 176 176 177 178 178 178 175 171 159 133 103 83
281 283 285 296 300 305 309 309 308 306 309 307 302 292 279 267 257 247 237 223 206 198 193 189 189 184 177 179 183 185 182 176 175 170 172 174 172 172 171 168 158 148 138 122
289 287 287 294 305 313 318 319 314 311 311 309 305 296 286 273 263 250 233 214 205 202 196 192 190 180 174 177 177 178 173 162 166 169 169 170 171 170 167 164 160 155 148 138
286 290 301 309 317 321 321 320 316 312 310 309 306 300 290 276 260 242 228 219 216 210 199 194 184 171 173 175 173 170 164 160 169 173 171 169 169 169 165 164 160 151 133 97
298 306 311 312 315 317 319 320 319 317 313 310 307 299 286 271 257 243 226 214 210 209 202 189 175 169 172 173 170 165 163 165 171 170 166 167 166 165 163 160 156 150 139 132
316 317 319 319 318 317 318 319 320 319 317 313 305 295 286 277 268 250 222 204 201 203 197 179 165 171 169 165 161 162 162 163 164 163 160 156 165 164 163 162 159 156 152 149
318 320 322 323 321 320 320 320 319 318 318 316 307 296 289 281 269 244 223 213 211 205 183 173 173 174 167 163 164 164 163 164 164 163 164 167 169 167 166 165 164 162 160 158
320 320 320 321 321 319 319 319 319 317 317 313 305 298 292 284 263 237 222 219 205 182 172 172 178 172 167 161 169 166 165 165 167 167 167 168 169 169 169 168 168 168 166 161
315 315 314 316 317 317 318 320 318 315 313 312 308 300 291 279 261 245 235 232 191 168 169 177 178 166 161 161 167 164 165 165 166 166 167 170 171 171 172 171 171 169 168 165
305 306 308 311 313 312 312 314 316 313 310 309 306 300 289 277 258 244 235 204 182 178 180 178 167 161 162 166 166 165 166 167 168 168 169 171 172 173 172 172 171 168 169 170
296 298 300 303 306 305 305 309 312 309 305 303 302 299 291 278 264 254 248 179 182 177 179 161 165 168 170 173 168 168 169 168 168 169 169 171 171 171 170 169 169 170 173 177
285 288 291 295 297 297 299 303 304 305 302 300 302 302 293 280 272 265 228 187 174 173 168 167 171 173 179 178 175 173 171 170 167 165 168 169 169 169 168 168 173 175 178 181
279 280 281 283 286 287 289 291 291 293 295 295 297 299 295 284 267 249 221 195 183 175 174 175 176 178 184 180 176 173 170 164 165 170 173 172 171 171 172 175 177 180 183 186
273 273 274 276 278 277 277 279 278 279 281 282 286 291 286 273 251 225 210 193 183 180 178 180 183 180 175 172 173 175 174 171 171 171 172 172 172 173 175 178 181 180 180 188